User: anonymous   Login
Location: Corralito
(10.2667°N, 66.9500°W)
Time: 07:19:46
(UTC+00:00)
Language:

YAOGAN 1 - Orbit

View from above orbital plane
View from above orbital plane
View from above satellite
View from above satellite

Ground track
Ground track

The orbit data is extracted from the following two-line orbital elements,

1 29092U 06015A   23275.64450625  .00001532  00000-0  18841-3 0  9991
2 29092  97.8324 300.9928 0001502  89.7382 270.4005 14.84424359942965
Epoch (UTC): 02 October 2023 15:28:05
Eccentricity: 0.0001502
inclination: 97.8324°
perigee height: 614 km
apogee height: 616 km
right ascension of ascending node: 300.9928°
argument of perigee: 89.7382°
revolutions per day: 14.84424359
mean anomaly at epoch: 270.4005°
orbit number at epoch: 94296

The dashed part of the orbit path shows where the satellite is in the earth's shadow,  

DLR